Location: �clusier
(49.9361°N, 2.7869°E)
Time: 03:53:27
(UTC+00:00)

Cosmos 1943 Rocket - Pass Details

Date: 04 November 2021
Orbit: 811 x 844 km, 71.0° (Epoch: 07 December)

Event Time Altitude Azimuth Distance (km) Brightness Sun altitude
Rises 16:53:11 0° 332° (NNW) 3,415 5.5 -5.7°
Reaches altitude 10° 16:56:40 10° 354° (N) 2,475 4.5 -6.3°
Maximum altitude 17:00:08 16° 32° (NNE) 2,062 3.8 -6.8°
Drops below altitude 10° 17:03:35 10° 70° (ENE) 2,462 3.9 -7.3°
Enters shadow 17:04:00 - 73° (ENE) 2,553 4.0 -7.4°
